Погода в Булдане

Турция     38°02′47″N   28°49′33″E
темп.,
°C
ветер,
м/с
пор.,
м/с
влажн.,
%
обл.,
%
осадки,
мм/ч
давл.,
гПа
погр.,
м
6 марта, сб
сб600:00+7з336378 0.0 102337
03:00+7з336789 0.0 102342
06:00+6з2364100 0.0 102326
09:00+8зюз2352100 0.0 1023122
12:00+12зюз2339100 0.0 1022761
15:00+14зюз454087 0.0 10211359
18:00+13зюз365240 0.0 10201329
21:00+8з337620 0.0 102131
7 марта, вс
вс700:00+7з23860 0.0 102230
03:00+6з23900 0.0 102228
06:00+5ссз228946 0.0 102227
09:00+7с228439 0.0 1022152
12:00+10ссв226979 0.0 1020580
15:00+12ссв225146 0.0 10191330
18:00+11с335520 0.0 1017776
21:00+7с237035 0.0 1019134
8 марта, пн
пн800:00+3с238042 0.0 101953
03:00+2с238121 0.0 101941
06:00+1с23830 0.0 101830
09:00+4ссв12680 0.0 1018161
12:00+9вюв21450 0.0 1016747
15:00+12юв11300 0.0 10141260
18:00+11с113344 0.0 1014745
21:00+6ссз224972 0.0 101630
9 марта, вт
вт900:00+4с125361 0.0 101623
03:00+3с225438 0.0 101723
06:00+2ссв12510 0.0 101622
09:00+7св22384 0.0 1017121
12:00+11в22280 0.0 1015657
15:00+15ююв112319 0.0 1013908
18:00+14юз0136100 0.0 101338
21:00+8ююв114297 0.0 101422
10 марта, ср
ср1000:00+8сз124089 0.0 101522
03:00+7ссз114884 0.0 101522
06:00+6с125270 0.0 101423
09:00+10с114258 0.0 101573
12:00+15вюв11330 0.0 1013937
15:00+17зюз13320 0.0 10112035
18:00+14ссз454254 0.0 1011916
21:00+8ссз235727 0.0 101341